Date String (YYYY-MM-DD hh:mm:ss) UTC,Instrument flags,Ambient pressure (hPa),Sample flow (lpm),Bypass flow (lpm),Sample temperature (°C),Ambient temperature (°C),ASC tube jacket temperature (°C),LED temperature (°C),Box temperature (°C),Sample RH (%),Span deviation,Mass concentration (μg/m³),Mass concentration (μg/m³),Mass concentration (μg/m³)
DateTimeUTC,F1_M11,P_M11,Q1_M11,Q2_M11,T1_M11,T2_M11,T3_M11,T4_M11,T5_M11,U1_M11,ZSPAN_M11,X0_M11,X2_M11,X1_M11
2021-09-04 08:00:00,,0830.8,5.00,0.00,30.1,29.2,00.0,39.1,31.8,33.3,-000.8,0015.80,0009.62,0008.91
2021-09-04 08:01:00,,0830.8,5.01,0.00,30.1,29.3,00.0,39.2,31.8,33.3,-000.7,0015.89,0009.68,0008.93
2021-09-04 08:02:00,,0830.7,5.00,0.00,30.2,29.3,00.0,39.2,31.9,33.1,-000.7,0015.94,0009.70,0008.95
2021-09-04 08:03:00,,0830.8,5.01,0.00,30.2,29.3,00.0,39.2,31.9,32.9,-000.8,0015.65,0009.75,0008.96
2021-09-04 08:04:00,,0830.8,5.00,0.00,30.2,29.3,00.0,39.2,31.9,32.8,-000.9,0014.48,0009.76,0008.99
2021-09-04 08:05:00,,0830.8,5.01,0.00,30.2,29.4,00.0,39.2,31.9,32.7,-000.8,0014.30,0009.74,0008.98
2021-09-04 08:06:00,,0830.8,4.99,0.00,30.2,29.4,00.0,39.2,32.0,32.9,-000.6,0014.38,0009.77,0009.00
2021-09-04 08:07:00,,0830.8,5.00,0.00,30.3,29.4,00.0,39.3,32.0,32.9,-000.6,0014.53,0009.79,0009.02
2021-09-04 08:08:00,,0830.7,4.99,0.00,30.3,29.5,00.0,39.3,32.0,32.8,-000.6,0014.12,0009.80,0009.04
2021-09-04 08:09:00,,0830.6,5.01,0.00,30.3,29.5,00.0,39.3,32.0,32.7,-000.8,0014.01,0009.79,0009.07
2021-09-04 08:10:00,,0830.6,4.99,0.00,30.3,29.5,00.0,39.3,32.0,32.5,-000.6,0014.10,0009.82,0009.07
2021-09-04 08:11:00,,0830.6,5.00,0.00,30.3,29.5,00.0,39.3,32.0,32.4,-000.5,0014.44,0009.90,0009.12
2021-09-04 08:12:00,,0830.6,5.00,0.00,30.3,29.5,00.0,39.3,32.1,32.4,-000.8,0014.71,0009.96,0009.15
2021-09-04 08:13:00,,0830.6,5.01,0.00,30.3,29.1,00.0,39.4,32.0,32.5,-001.0,0014.97,0009.99,0009.19
2021-09-04 08:14:00,,0830.6,5.00,0.00,30.2,27.1,00.0,39.3,31.4,32.8,-001.0,0015.15,0010.02,0009.24
2021-09-04 08:15:00,,0830.6,5.00,0.00,30.1,26.3,00.0,39.3,31.3,33.2,-001.1,0015.81,0010.05,0009.26
2021-09-04 08:16:00,,0830.5,5.00,0.00,29.9,26.5,00.0,39.2,31.3,33.4,-001.1,0016.13,0010.10,0009.30
2021-09-04 08:17:00,,0830.5,5.00,0.00,29.9,27.0,00.0,39.2,31.3,33.7,-001.2,0016.13,0010.11,0009.30
2021-09-04 08:18:00,,0830.6,4.98,0.00,29.8,27.4,00.0,39.1,31.3,33.7,-001.2,0016.23,0010.13,0009.29
2021-09-04 08:19:00,,0830.6,5.02,0.00,29.8,27.7,00.0,39.1,31.3,33.7,-001.0,0016.41,0010.18,0009.29
2021-09-04 08:20:00,,0830.6,4.99,0.00,29.8,27.9,00.0,39.1,31.4,33.8,-000.9,0016.47,0010.22,0009.30
2021-09-04 08:21:00,,0830.6,5.00,0.00,29.8,28.1,00.0,39.1,31.4,33.8,-000.9,0016.46,0010.21,0009.31
2021-09-04 08:22:00,,0830.6,5.01,0.00,29.8,28.3,00.0,39.0,31.4,33.9,-000.9,0016.44,0010.20,0009.29
2021-09-04 08:23:00,,0830.6,4.99,0.00,29.9,28.4,00.0,39.0,31.5,33.9,-000.5,0016.04,0010.13,0009.28
2021-09-04 08:24:00,,0830.5,5.00,0.00,29.9,28.5,00.0,39.0,31.5,33.8,-000.5,0015.89,0010.16,0009.28
2021-09-04 08:25:00,,0830.5,5.00,0.00,29.9,28.6,00.0,39.0,31.5,33.8,-000.4,0016.00,0010.19,0009.28
2021-09-04 08:26:00,,0830.5,4.99,0.00,29.9,28.7,00.0,39.0,31.6,33.8,-000.2,0015.55,0010.21,0009.29
2021-09-04 08:27:00,,0830.5,5.01,0.00,29.9,28.7,00.0,39.0,31.6,33.8,-000.2,0015.34,0010.19,0009.27
2021-09-04 08:28:00,,0830.5,5.01,0.00,29.9,28.8,00.0,39.0,31.6,33.8,-000.1,0015.45,0010.18,0009.26
2021-09-04 08:29:00,,0830.5,4.99,0.00,29.9,28.8,00.0,39.0,31.6,33.8,0000.0,0015.53,0010.11,0009.26
2021-09-04 08:30:00,,0830.5,5.00,0.00,30.0,28.9,00.0,39.0,31.7,33.7,-000.3,0015.58,0010.08,0009.25
2021-09-04 08:31:00,,0830.5,5.01,0.00,30.0,28.9,00.0,39.1,31.7,33.6,-000.5,0015.65,0010.08,0009.25
2021-09-04 08:32:00,,0830.5,5.00,0.00,30.0,28.9,00.0,39.1,31.7,33.6,-000.7,0015.55,0010.09,0009.25
2021-09-04 08:33:00,,0830.4,5.01,0.00,30.0,29.0,00.0,39.1,31.7,33.5,-000.8,0015.31,0010.04,0009.23
2021-09-04 08:34:00,,0830.4,5.00,0.00,30.0,29.0,00.0,39.1,31.7,33.5,-001.0,0015.41,0010.05,0009.22
2021-09-04 08:35:00,,0830.4,4.99,0.00,30.0,29.0,00.0,39.1,31.7,33.4,-000.9,0015.35,0010.00,0009.20
2021-09-04 08:36:00,,0830.4,4.99,0.00,30.0,29.1,00.0,39.1,31.7,33.4,-000.6,0015.00,0009.94,0009.17
2021-09-04 08:37:00,,0830.4,5.00,0.00,30.1,29.1,00.0,39.1,31.8,33.3,-000.6,0014.79,0009.89,0009.15
2021-09-04 08:38:00,,0830.4,4.99,0.00,30.1,29.1,00.0,39.1,31.8,33.3,-000.8,0014.97,0009.90,0009.13
2021-09-04 08:39:00,,0830.4,5.01,0.00,30.1,29.2,00.0,39.1,31.8,33.2,-001.0,0015.19,0009.90,0009.13
2021-09-04 08:40:00,,0830.4,5.00,0.00,30.1,29.2,00.0,39.1,31.8,33.2,-000.9,0014.87,0009.94,0009.15
2021-09-04 08:41:00,,0830.4,4.99,0.00,30.1,29.2,00.0,39.2,31.8,33.2,-000.8,0014.87,0009.94,0009.16
2021-09-04 08:42:00,,0830.4,4.99,0.00,30.1,29.2,00.0,39.2,31.8,33.1,-000.5,0015.16,0009.90,0009.15
2021-09-04 08:43:00,,0830.4,5.01,0.00,30.1,29.2,00.0,39.2,31.9,33.1,-000.5,0015.13,0009.88,0009.15
2021-09-04 08:44:00,,0830.4,4.99,0.00,30.2,29.2,00.0,39.2,31.9,33.1,-000.3,0015.50,0009.89,0009.17
2021-09-04 08:45:00,,0830.4,5.00,0.00,30.2,29.3,00.0,39.2,31.9,33.0,-000.2,0016.02,0009.92,0009.20
2021-09-04 08:46:00,,0830.4,5.01,0.00,30.2,29.2,00.0,39.2,31.9,33.0,-000.3,0016.08,0009.97,0009.23
2021-09-04 08:47:00,,0830.4,5.00,0.00,30.2,29.3,00.0,39.3,32.0,32.9,-000.4,0016.15,0010.00,0009.25
2021-09-04 08:48:00,,0830.2,4.98,0.00,30.2,29.3,00.0,39.3,32.0,33.0,-000.4,0016.23,0010.05,0009.28
2021-09-04 08:49:00,,0830.2,5.00,0.00,30.2,29.3,00.0,39.3,32.0,33.0,-000.4,0015.97,0010.04,0009.31
2021-09-04 08:50:00,,0830.3,5.00,0.00,30.2,29.3,00.0,39.3,32.0,32.9,-000.4,0016.19,0010.04,0009.34
2021-09-04 08:51:00,,0830.2,5.01,0.00,30.2,29.4,00.0,39.3,32.0,32.8,-000.6,0016.20,0010.04,0009.34
2021-09-04 08:52:00,,0830.3,4.99,0.00,30.2,29.4,00.0,39.3,32.0,32.7,-000.7,0016.35,0010.00,0009.33
2021-09-04 08:53:00,,0830.3,5.01,0.00,30.3,29.4,00.0,39.3,32.0,32.5,-000.9,0016.06,0009.99,0009.32
2021-09-04 08:54:00,,0830.4,5.00,0.00,30.3,29.4,00.0,39.3,32.0,32.3,-000.9,0016.03,0009.99,0009.31
2021-09-04 08:55:00,,0830.3,4.99,0.00,30.3,29.4,00.0,39.4,32.0,32.1,-000.9,0015.56,0009.95,0009.28
2021-09-04 08:56:00,,0830.4,4.99,0.00,30.3,29.4,00.0,39.4,32.0,31.9,-000.7,0014.98,0009.92,0009.24
2021-09-04 08:57:00,,0830.3,5.00,0.00,30.3,29.4,00.0,39.4,32.0,31.6,-000.6,0015.00,0009.87,0009.21
2021-09-04 08:58:00,,0830.3,5.00,0.00,30.3,29.4,00.0,39.4,32.0,31.4,-000.8,0014.98,0009.85,0009.20
2021-09-04 08:59:00,,0830.4,5.01,0.00,30.3,29.4,00.0,39.4,32.1,31.2,-000.7,0014.95,0009.79,0009.15
